Wetterdaten: aktuell Montag, 20.09.2021 15:10
Datum Zeit Temp. A. Temp. 5cm Feuchte A. Luftdruck Regen Wind Richtung Richtung Taupunkt Windchill Windben Empfang
20.09.2021 15:10 12,4 C 15,6 C 81 % 1021,2 hPa 0,0 l/m 3,0 km/h (1 Bft) SO 137 9,2 C 12,4 C 4,8 km/h (1 Bft) 98 %
20.09.2021 15:08 12,4 C 15,6 C 82 % 1021,3 hPa 0,0 l/m 4,7 km/h (1 Bft) SO 131 9,4 C 12,4 C 6,4 km/h (2 Bft) 98 %
20.09.2021 15:06 12,4 C 16,1 C 81 % 1021,2 hPa 0,0 l/m 3,1 km/h (1 Bft) SO 140 9,2 C 12,4 C 4,8 km/h (1 Bft) 96 %
20.09.2021 15:04 12,5 C 16,1 C 80 % 1021,2 hPa 0,0 l/m 2,2 km/h (1 Bft) S-SO 147 9,1 C 12,5 C 4,8 km/h (1 Bft) 98 %
20.09.2021 15:02 12,6 C 16,7 C 83 % 1021,3 hPa 0,0 l/m 2,3 km/h (1 Bft) SO 142 9,8 C 12,6 C 4,8 km/h (1 Bft) 98 %
20.09.2021 15:00 12,5 C 16,7 C 82 % 1021,2 hPa 0,0 l/m 3,6 km/h (1 Bft) O-SO 113 9,5 C 12,5 C 6,4 km/h (2 Bft) 98 %
20.09.2021 14:58 12,6 C 17,2 C 83 % 1021,2 hPa 0,0 l/m 3,4 km/h (1 Bft) O-SO 109 9,8 C 12,6 C 6,4 km/h (2 Bft) 98 %
20.09.2021 14:56 12,5 C 17,2 C 82 % 1021,2 hPa 0,0 l/m 2,2 km/h (1 Bft) O 94 9,5 C 12,5 C 4,8 km/h (1 Bft) 98 %
20.09.2021 14:54 12,5 C 17,2 C 80 % 1021,2 hPa 0,0 l/m 2,3 km/h (1 Bft) SO 146 9,1 C 12,5 C 4,8 km/h (1 Bft) 96 %
20.09.2021 14:52 12,5 C 17,8 C 81 % 1021,2 hPa 0,0 l/m 2,4 km/h (1 Bft) SO 142 9,3 C 12,5 C 4,8 km/h (1 Bft) 98 %
20.09.2021 14:50 12,4 C 17,8 C 82 % 1021,2 hPa 0,0 l/m 1,6 km/h (1 Bft) O-SO 115 9,4 C 12,4 C 4,8 km/h (1 Bft) 94 %
20.09.2021 14:48 12,4 C 17,8 C 82 % 1021,3 hPa 0,0 l/m 2,9 km/h (1 Bft) O-SO 114 9,4 C 12,4 C 4,8 km/h (1 Bft) 95 %
20.09.2021 14:46 12,4 C 17,2 C 82 % 1021,2 hPa 0,0 l/m 3,2 km/h (1 Bft) O-SO 111 9,4 C 12,4 C 4,8 km/h (1 Bft) 94 %
20.09.2021 14:44 12,4 C 17,2 C 82 % 1021,2 hPa 0,0 l/m 4,0 km/h (1 Bft) O-SO 111 9,4 C 12,4 C 6,4 km/h (2 Bft) 97 %
20.09.2021 14:42 12,5 C 17,2 C 82 % 1021,2 hPa 0,0 l/m 4,9 km/h (1 Bft) O-SO 109 9,5 C 12,5 C 6,4 km/h (2 Bft) 97 %
20.09.2021 14:40 12,4 C 17,2 C 82 % 1021,1 hPa 0,0 l/m 4,3 km/h (1 Bft) O-SO 109 9,4 C 12,4 C 6,4 km/h (2 Bft) 94 %
20.09.2021 14:38 12,4 C 17,2 C 82 % 1021,2 hPa 0,0 l/m 4,3 km/h (1 Bft) O-SO 117 9,4 C 12,4 C 6,4 km/h (2 Bft) 98 %
20.09.2021 14:36 12,4 C 17,8 C 82 % 1021,2 hPa 0,0 l/m 2,4 km/h (1 Bft) O-SO 103 9,4 C 12,4 C 3,2 km/h (1 Bft) 98 %
20.09.2021 14:34 12,5 C 17,8 C 82 % 1021,2 hPa 0,0 l/m 3,8 km/h (1 Bft) O 100 9,5 C 12,5 C 6,4 km/h (2 Bft) 96 %
20.09.2021 14:32 12,4 C 17,8 C 82 % 1021,2 hPa 0,0 l/m 3,1 km/h (1 Bft) O 100 9,4 C 12,4 C 4,8 km/h (1 Bft) 98 %
20.09.2021 14:30 12,4 C 18,3 C 82 % 1021,2 hPa 0,0 l/m 3,0 km/h (1 Bft) O-SO 102 9,4 C 12,4 C 6,4 km/h (2 Bft) 96 %
20.09.2021 14:28 12,5 C 18,3 C 82 % 1021,3 hPa 0,0 l/m 4,2 km/h (1 Bft) O 93 9,5 C 12,5 C 9,7 km/h (2 Bft) 98 %
20.09.2021 14:26 12,6 C 18,9 C 83 % 1021,2 hPa 0,0 l/m 6,8 km/h (2 Bft) O 80 9,8 C 12,4 C 11,3 km/h (2 Bft) 98 %
20.09.2021 14:24 12,6 C 18,9 C 84 % 1021,2 hPa 0,0 l/m 5,1 km/h (1 Bft) O-NO 76 10,0 C 12,6 C 8,0 km/h (2 Bft) 98 %
20.09.2021 14:22 12,4 C 18,9 C 84 % 1021,2 hPa 0,0 l/m 4,3 km/h (1 Bft) O 82 9,8 C 12,4 C 8,0 km/h (2 Bft) 94 %
20.09.2021 14:20 12,2 C 18,9 C 82 % 1021,2 hPa 0,0 l/m 2,5 km/h (1 Bft) O 81 9,2 C 12,2 C 4,8 km/h (1 Bft) 100 %
20.09.2021 14:18 12,3 C 18,3 C 81 % 1021,1 hPa 0,0 l/m 1,9 km/h (1 Bft) SO 130 9,1 C 12,3 C 4,8 km/h (1 Bft) 100 %
20.09.2021 14:16 12,3 C 18,3 C 82 % 1021,2 hPa 0,0 l/m 5,5 km/h (1 Bft) SO 130 9,3 C 12,3 C 9,7 km/h (2 Bft) 98 %
20.09.2021 14:14 12,3 C 18,3 C 83 % 1021,1 hPa 0,0 l/m 4,0 km/h (1 Bft) O-SO 115 9,5 C 12,3 C 6,4 km/h (2 Bft) 100 %
20.09.2021 14:12 12,1 C 18,3 C 82 % 1021,1 hPa 0,0 l/m 4,8 km/h (1 Bft) O-SO 110 9,1 C 12,1 C 6,4 km/h (2 Bft) 100 %
20.09.2021 14:10 12,1 C 18,3 C 82 % 1021,0 hPa 0,0 l/m 3,5 km/h (1 Bft) O-SO 107 9,1 C 12,1 C 6,4 km/h (2 Bft) 100 %
_ Min-Zeit 11:12 05:00 04:58 00:40 - 01:32 - - 05:30 05:08 01:32 00:54
Minimum _ 10,3 C 10,6 C 80 % 1016,8 hPa - 0,0 km/h (0 Bft) - - 8,0 C 5,3 C 0,0 km/h (0 Bft) 91 %
_ Max-Zeit 14:26 14:02 09:02 12:20 00:00 05:08 - - 02:20 00:06 05:08 00:02
Maximum _ 12,7 C 18,9 C 93 % 1021,3 hPa 0,0 l/m 18,8 km/h
O (3 Bft)
- - 10,4 C 12,6 C 22,5 km/h
O (4 Bft)
100 %
Durchschnitt _ 11,4 C 12,8 C 87 % 1019,1 hPa #0,0 l/m 5,2 km/h (1 Bft) O-NO - 9,3 C 10,8 C 7,5 km/h (2 Bft) 98 %